loading
|

THOR ABLESTAR DEB, 956

Orbit data source: Space-Track

THOR ABLESTAR DEB, 956 is space debris in LEO originally from a launch on Sun, 13 Dec 1964 UTC launched from the Air Force Western Test Range (AFWTR). Debris objects in space refer to the collection of defunct objects orbiting the Earth. Examples of debris include non-operational satellites, rocket bodies, and fragments generated from explosions, collisions, or faulty payload assembly.

Loading next visibility...
Loading greatness...
THOR ABLESTAR DEB details
Identifier
956, 1964-083B
Orbit
LEO
Last TLE update9 hours ago
Origin
Flag of USUSN BuWeps (US)
ManufacturerUnknown
Mission statusUnknown
MissionUnknown
Bus & MotorUnknown
MassUnknown
Launch date (UTC)
1964-12-13 (60 years ago)
Launch vehicleUnknown
Launch site
Air Force Western Test Range (AFWTR)
Object type
Payload
Rocket body
Debris
Radar Cross SectionSmall (<0.1 m²)

Expand to show TLE details & history

TLE from 9 hours ago
0 THOR ABLESTAR DEB
1   956U 64083B   24251.33417742  .00000913  00000-0  10791-2 0  9999
2   956  89.9437 173.2216 0024578 142.8073 345.4729 13.66997290968105
Epoch: 2024-09-07T08:01Z
Definitive object data (Epoch: 2024-09-07T08:01:12.929Z)
Latitude51.88594°
Longitude-114.04752°
Altitude1,001.263 km
Speed7.365 km/s
True Right ascension23h 32m 36s
True Declination51° 43' 28"
Sunlit
Object was in full shadow at TLE epoch
Predictive object data (real-time)
Latitude-68.68472°
Longitude-113.83486°
Altitude1,041.509 km
Speed7.328 km/s
Apparent Right ascension22h 14m 48s
Apparent Declination-56° 07' 10"
Sunlit
Object is in daylight
Predictive observer data (real-time)
Local Sidereal Time09:32:00
Azimuth199.945° SSW
Elevation-72.334°
Doppler factor1
Orbital elements
Apogee1,025.548 km
Perigee989.244 km
Semi-major axis7,385.533 km
Eccentricity0.0024578
Inclination89.9437°
RAAN173.2216°
Arg. of periapsis142.8073°
True anomaly345.40204°
Mean anomaly345.4729°
Eccentric anomaly345.43749°
Mean motion3.41956 °/min
BSTAR0.0010791
Period105.28 mins
No data available

THOR ABLESTAR DEB Visibility forecast

Observer location: 39.9160978°, -105.1181434

THOR ABLESTAR DEB is not visible in the next 10 days
Span
Click to sort rows by Start time (UTC) header in descending order
Start Az.
Max El. time (UTC)
Max El. Az.
Max El.
End time (UTC)
End Az.